FW0135 Weather Reports


Display with metric or nautical units.
time (UTC)temp
F
wind
direction
speed
MPH
gust
MPH
rain 1hr
in
rain 24hr
in
rain mn
in
humidity
%
barometer
mb
20260502210849 49 0 0.0 0.0 0.04 0.40 0.41 91 995.6
20260502210343 49 0 0.0 0.0 0.04 0.39 0.39 91 995.6
20260502205837 49 0 0.0 0.0 0.03 0.38 0.38 90 995.6
20260502205331 49 0 0.0 0.0 0.03 0.37 0.37 90 995.7
20260502204825 49 0 0.0 0.0 0.02 0.36 0.36 90 995.7
20260502204319 49 0 0.0 0.0 0.04 0.36 0.36 90 995.6
20260502203812 49 0 0.0 0.0 0.04 0.36 0.36 90 995.5
20260502203308 49 0 0.0 0.0 0.05 0.36 0.36 90 995.5
20260502202800 49 0 0.0 0.0 0.06 0.36 0.36 90 995.6
20260502202254 50 0 0.0 0.0 0.06 0.36 0.36 91 995.6
20260502201749 50 0 0.0 0.0 0.06 0.36 0.36 91 995.6
20260502200230 49 0 0.0 0.0 0.05 0.35 0.35 90 995.7
20260502195725 49 0 0.0 0.0 0.04 0.34 0.35 90 995.7
20260502195218 49 0 0.0 0.0 0.04 0.34 0.34 90 995.7
20260502194712 49 0 0.0 0.0 0.03 0.33 0.33 90 995.8
20260502194207 49 0 0.0 0.0 0.02 0.32 0.32 90 995.9
20260502193701 49 0 0.0 0.0 0.01 0.31 0.32 90 995.9
20260502193155 49 0 0.0 0.0 0.01 0.31 0.31 90 996.0
20260502192649 49 0 0.0 0.0 0.00 0.30 0.30 90 996.0
20260502192142 50 0 0.0 0.0 0.00 0.30 0.30 89 995.9
20260502191636 50 0 0.0 0.0 0.00 0.30 0.30 90 995.9
20260502191130 50 0 0.0 0.0 0.00 0.30 0.30 89 995.8
20260502185613 50 0 0.0 0.0 0.00 0.30 0.30 90 995.9
20260502185107 50 0 0.0 0.0 0.01 0.30 0.30 90 996.0
20260502184607 50 0 0.0 0.0 0.01 0.30 0.30 90 996.0
20260502183106 50 0 0.0 0.0 0.02 0.30 0.30 91 996.2
20260502181558 49 0 0.0 0.0 0.04 0.30 0.30 90 996.4
20260502180557 49 0 0.0 0.0 0.06 0.30 0.30 91 996.3
20260502163540 50 0 0.0 0.0 0.00 0.23 0.23 89 996.5
20260502163039 50 0 0.0 0.0 0.00 0.23 0.23 92 996.5
20260502162539 49 5 0.0 0.0 0.00 0.23 0.23 91 996.5
20260502162039 48 5 0.0 0.0 0.00 0.23 0.23 91 996.6
20260502161540 48 5 0.0 0.0 0.00 0.23 0.23 91 996.7
20260502151959 46 5 0.0 0.0 0.00 0.23 0.23 90 997.2
20260502151453 46 5 0.0 0.0 0.00 0.23 0.23 90 997.3
20260502150947 46 5 0.0 0.0 0.00 0.23 0.23 90 997.3
20260502150441 46 5 0.0 0.0 0.00 0.23 0.23 90 997.3
20260502130723 44 5 0.0 0.0 0.02 0.23 0.23 92 997.7
20260502130217 44 5 0.0 0.0 0.02 0.22 0.23 92 997.7
20260502123647 44 5 0.0 0.0 0.04 0.22 0.22 92 997.7
20260502123141 44 5 0.0 0.0 0.04 0.22 0.22 92 997.8
20260502122635 44 5 0.0 0.0 0.04 0.22 0.22 92 997.9
20260502122128 44 5 0.0 0.0 0.04 0.22 0.22 92 998.0
20260502121623 44 5 0.0 0.0 0.04 0.22 0.22 92 997.8
20260502121117 44 5 0.0 0.0 0.03 0.21 0.21 92 997.8
20260502120610 44 5 0.0 0.0 0.03 0.21 0.21 92 997.8
20260502120105 43 5 0.0 0.0 0.02 0.20 0.20 92 997.9
20260502114041 43 5 0.0 0.0 0.00 0.18 0.18 92 997.9
20260502113534 43 5 0.0 0.0 0.01 0.18 0.18 92 997.9
20260502112523 43 5 0.0 0.0 0.02 0.18 0.18 92 997.7
20260502112017 43 5 0.0 0.0 0.02 0.18 0.18 92 997.6
20260502111012 43 5 0.0 0.0 0.03 0.18 0.18 92 997.3
20260502110510 43 5 0.0 0.0 0.03 0.18 0.18 92 997.3
20260502110011 43 5 0.0 0.0 0.04 0.18 0.18 92 997.4
20260502105511 43 5 0.0 0.0 0.04 0.18 0.18 92 997.2
20260502105008 43 5 0.0 0.0 0.05 0.18 0.18 92 997.3
20260502104009 43 5 0.0 0.0 0.07 0.18 0.18 92 997.4
20260502103510 42 5 0.0 0.0 0.07 0.17 0.17 91 997.5
20260502103009 42 5 0.0 0.0 0.07 0.17 0.17 91 997.6
20260502102507 42 5 0.0 0.0 0.07 0.16 0.16 91 997.6
20260502102007 42 5 0.0 0.0 0.08 0.16 0.16 91 997.6
20260502101505 42 5 0.0 0.0 0.08 0.15 0.15 91 997.6
20260502101006 42 5 0.0 0.0 0.08 0.15 0.15 91 997.5
20260502100506 42 5 0.0 0.0 0.09 0.15 0.15 91 997.5
20260502091001 42 5 0.0 0.0 0.05 0.06 0.06 91 997.2
20260502090502 42 5 0.0 0.0 0.05 0.06 0.06 91 997.2
20260502071330 42 5 0.0 0.0 0.00 0.00 0.00 88 997.4
20260502070318 42 5 0.0 0.0 0.00 0.00 0.00 88 997.5
20260502065813 42 5 0.0 0.0 0.00 0.00 0.00 88 997.5
20260502065306 42 5 0.0 0.0 0.00 0.00 0.00 88 997.5
20260502064255 42 5 0.0 2.0 0.00 0.00 0.00 87 997.8
20260502063748 42 5 0.0 2.0 0.00 0.00 0.00 87 997.9
20260502063242 42 5 0.0 2.0 0.00 0.00 0.00 87 997.9
20260502062737 42 5 0.0 1.0 0.00 0.00 0.00 87 997.9
20260502061725 42 5 0.0 1.0 0.00 0.00 0.00 87 997.9
20260502061225 42 5 1.0 2.0 0.00 0.00 0.00 86 997.8
20260502060203 42 321 1.0 2.0 0.00 0.00 0.00 85 998.0
20260502055657 42 321 1.0 3.0 0.00 0.00 0.00 85 998.1
20260502055150 42 321 1.0 5.0 0.00 0.00 0.00 84 998.0
20260502054644 42 342 0.0 5.0 0.00 0.00 0.00 82 997.8
20260502054139 42 49 0.0 2.0 0.00 0.00 0.00 82 997.9
20260502053632 42 49 0.0 2.0 0.00 0.00 0.00 82 997.7
20260502053127 42 49 0.0 1.0 0.00 0.00 0.00 82 997.5
20260502052621 42 49 0.0 1.0 0.00 0.00 0.00 82 997.3
20260502052115 42 49 0.0 2.0 0.00 0.00 0.00 82 997.3
20260502051609 42 49 1.0 2.0 0.00 0.00 0.00 82 997.3
20260502051102 42 49 0.0 2.0 0.00 0.00 0.00 83 997.2
20260502045039 42 49 0.0 0.0 0.00 0.00 0.00 82 997.2
20260502044026 41 49 0.0 0.0 0.00 0.00 0.00 82 997.3
20260502043014 41 49 0.0 0.0 0.00 0.00 0.00 81 997.2
20260502042509 41 49 0.0 0.0 0.00 0.00 0.00 81 997.2
20260502042003 41 49 0.0 0.0 0.00 0.00 0.00 81 997.1
20260502040950 41 49 0.0 0.0 0.00 0.01 0.00 81 996.9
20260502040445 41 49 0.0 0.0 0.00 0.01 0.00 81 996.9
20260502035939 41 49 0.0 0.0 0.00 0.01 0.01 81 996.9
20260502035433 40 49 0.0 0.0 0.00 0.01 0.01 81 996.9
20260502034928 40 49 0.0 0.0 0.00 0.01 0.01 80 997.0
20260502033915 40 49 0.0 0.0 0.00 0.01 0.01 80 997.0
20260502033414 40 49 0.0 0.0 0.00 0.01 0.01 80 997.0
20260502032900 41 49 0.0 0.0 0.00 0.01 0.01 79 996.9
20260502032353 41 49 0.0 0.0 0.00 0.01 0.01 79 996.8
20260502031341 41 49 0.0 0.0 0.00 0.01 0.01 79 996.9
20260502030835 41 49 0.0 0.0 0.00 0.01 0.01 78 996.9
20260502030329 41 49 0.0 0.0 0.00 0.01 0.01 77 996.9
20260502024811 42 49 0.0 0.0 0.00 0.01 0.01 77 996.9
20260502024305 42 49 0.0 0.0 0.00 0.01 0.01 77 997.0
20260502023759 42 49 0.0 0.0 0.00 0.01 0.01 77 996.9
20260502023253 42 49 0.0 0.0 0.00 0.01 0.01 76 996.9
20260502022748 42 49 0.0 0.0 0.00 0.01 0.01 75 996.8
20260502022242 43 49 0.0 0.0 0.00 0.01 0.01 74 996.9
20260502021736 43 49 0.0 0.0 0.00 0.01 0.01 73 996.8
20260502021230 43 49 0.0 0.0 0.00 0.01 0.01 72 996.7
20260502020723 43 49 0.0 0.0 0.00 0.01 0.01 72 996.8
20260502020218 44 49 0.0 0.0 0.00 0.01 0.01 71 996.8
20260502015212 44 49 0.0 0.0 0.00 0.01 0.01 71 996.7
20260502014712 44 49 0.0 0.0 0.00 0.01 0.01 71 996.8
20260502014212 45 49 0.0 0.0 0.00 0.01 0.01 71 996.8
20260502013709 45 49 0.0 0.0 0.00 0.01 0.01 71 996.8
20260502013207 45 49 0.0 0.0 0.00 0.01 0.01 72 996.8
20260502012708 45 49 0.0 0.0 0.00 0.01 0.01 69 996.8
20260502012207 46 49 0.0 0.0 0.00 0.01 0.01 69 996.7
20260502011708 46 49 0.0 0.0 0.00 0.02 0.01 70 996.6
20260502011208 46 49 0.0 0.0 0.00 0.02 0.01 70 996.6
20260502010707 46 49 0.0 0.0 0.00 0.02 0.01 69 996.5
20260502010206 46 49 0.0 0.0 0.00 0.02 0.01 69 996.5
20260502005704 47 49 0.0 0.0 0.00 0.02 0.01 69 996.4
20260502005203 47 49 0.0 0.0 0.00 0.02 0.01 69 996.4
20260502004704 47 49 0.0 0.0 0.00 0.02 0.01 70 996.3
20260502004203 47 49 0.0 0.0 0.00 0.02 0.01 67 996.2
20260502003704 48 49 0.0 0.0 0.00 0.03 0.01 67 996.1
20260502003201 48 49 0.0 0.0 0.00 0.03 0.01 67 996.1
20260502002659 49 49 0.0 0.0 0.00 0.03 0.01 68 996.1
20260502002201 49 49 0.0 0.0 0.00 0.03 0.01 63 996.0
20260502001700 49 49 0.0 0.0 0.00 0.03 0.01 63 995.9
20260502001201 50 49 0.0 0.0 0.00 0.03 0.01 60 995.8
20260502000659 50 49 0.0 0.0 0.00 0.03 0.01 60 995.8
20260501235700 51 49 0.0 0.0 0.00 0.03 0.01 58 995.6
20260501235201 51 49 0.0 0.0 0.00 0.03 0.01 58 995.5
20260501234659 52 49 0.0 0.0 0.00 0.03 0.01 57 995.5
20260501234200 52 49 0.0 0.0 0.00 0.03 0.01 57 995.3
20260501233201 53 49 0.0 0.0 0.00 0.03 0.01 54 995.3
20260501232201 54 49 0.0 0.0 0.00 0.03 0.01 53 995.1
20260501231659 54 49 0.0 1.0 0.00 0.03 0.01 52 995.0
20260501231201 55 49 0.0 1.0 0.00 0.03 0.01 52 995.0
20260501230657 55 49 0.0 3.0 0.00 0.03 0.01 53 994.9
20260501230150 55 49 0.0 3.0 0.00 0.03 0.01 49 994.9
20260501225644 56 15 0.0 1.0 0.00 0.03 0.01 50 994.9
20260501225139 56 15 0.0 2.0 0.00 0.03 0.01 52 995.0
20260501224633 57 15 1.0 3.0 0.00 0.03 0.01 47 994.9
20260501224127 57 57 0.0 2.0 0.00 0.03 0.01 47 994.8
20260501223621 57 53 0.0 2.0 0.00 0.03 0.01 42 994.8
20260501223114 58 53 0.0 2.0 0.00 0.03 0.01 43 994.8
20260501222608 58 58 1.0 2.0 0.00 0.03 0.01 42 994.8
20260501222103 58 26 1.0 3.0 0.00 0.03 0.01 41 994.8
20260501221051 58 20 1.0 3.0 0.00 0.03 0.01 39 994.8
20260501220545 58 19 1.0 3.0 0.00 0.03 0.01 40 994.8
20260501220038 58 117 1.0 5.0 0.00 0.03 0.01 40 994.7
20260501215531 58 81 0.0 5.0 0.00 0.03 0.01 44 994.8
20260501215025 58 305 0.0 2.0 0.00 0.03 0.01 42 994.8
20260501214519 58 305 0.0 2.0 0.00 0.03 0.01 39 994.8
20260501214013 58 307 1.0 3.0 0.00 0.03 0.01 40 994.8
20260501213000 58 90 1.0 4.0 0.00 0.03 0.01 43 994.6
20260501211948 59 106 2.0 4.0 0.00 0.03 0.01 38 994.4